ATLAS 5 CENTAUR DEB, 44655

Orbit data source: Space-Track

ATLAS 5 CENTAUR DEB, 44655 is space debris in HEO originally from a launch on Wed, 17 Oct 2018 UTC launched from the Air Force Eastern Test Range (AFETR). Debris objects in space refer to the collection of defunct objects orbiting the Earth. Examples of debris include non-operational satellites, rocket bodies, and fragments generated from explosions, collisions, or faulty payload assembly.

Loading next visibility...
Identifier
44655, 2018-079R
Orbit
HEO
Country
Flag of USUS
Related business
Flag of USUnited Launch Alliance/Lockheed Martin (US)
Manufacturer
ULA Decatur
Mission
Spacecraft
Bus & Motor
Unknown
Mass
Unknown
Launch date (UTC)
2018-10-17 (8 years ago)
Launch vehicle
Unknown
Launch site
Air Force Eastern Test Range (AFETR)
Object type
Payload
Rocket body
Debris
Shape & HBR
Unknown shape, 1.1 m
Radar Cross Section
Medium (>0.1 m² and <1 m²)

Expand to show TLE details & history
Last TLE update: 1 week ago

TLE from 1 week ago
0 ATLAS 5 CENTAUR DEB
1 44655U 18079R   26164.05193392 -.00000063  00000-0  00000-0 0  9990
2 44655  13.8604  20.3490 4743574 339.2887   6.6738  1.83839324 51412
Epoch: 2026-06-13T01:14Z
TLE epoch observation values (Epoch: 2026-06-13T01:14:47.090Z)
Latitude
0.00016°
Longitude
100.25611°
Altitude
8,761.739 km
Speed
6.204 km/s
True Right ascension
01h 21m 17s
True Declination
0° 00' 01"
Sunlit
Object was in daylight at epoch
Visualization orbit readout
Latitude
Unknown
Longitude
Unknown
Altitude
Unknown
Speed
Unknown
Apparent Right ascension
Unknown
Apparent Declination
Unknown
Sunlit
N/A
Visualization observer readout
Local Sidereal Time
21:40:20
Azimuth
Unknown
Elevation
Unknown
Doppler factor
Unknown
Orbital elements
Apogee altitude
35,124.747 km
Perigee altitude
8,418.604 km
Semi-major axis
28,149.812 km
Eccentricity
0.47436
Inclination
13.8604°
RAAN
20.349°
Arg. of periapsis
339.2887°
True anomaly
20.95907°
Mean anomaly
6.6738°
Eccentric anomaly
12.60492°
Mean motion
0.45955 °/min
Orbital period
783.38 mins
BSTAR
0
Loading maneuver chart data...
Computing Atmospheric mass density...

Documentation

Showing up to 5 results
|